• In Czech Republic
  • List of Countries
  • For 7 days
  • Water Temperature
  • Satellite Maps
  • Weather Map
  • Weather Widgets
  • user-avatar
    Login

    Hourly Weather Turin

    Today, 19 September, Wednesday

    Time Temperature Precipitation Wind Pressure Humidity
    00:00 +21°C° 0.2 mm 1 mps 743 mmHg 82%
    01:00 +20°C° 0.2 mm 1 mps 743 mmHg 81%
    02:00 +20°C° 0.2 mm 1 mps 743 mmHg 81%
    03:00 +20°C° 0.2 mm 1 mps 743 mmHg 80%
    04:00 +20°C° 0.2 mm 1 mps 743 mmHg 80%
    05:00 +20°C° 0 mm 1 mps 743 mmHg 78%
    06:00 +20°C° 0 mm 1 mps 743 mmHg 77%
    07:00 +20°C° 0 mm 1 mps 743 mmHg 75%
    08:00 +22°C° 0 mm 1 mps 743 mmHg 69%
    09:00 +24°C° 0 mm 1 mps 743 mmHg 63%
    10:00 +26°C° 0 mm 1 mps 743 mmHg 57%
    11:00 +27°C° 0 mm 1 mps 743 mmHg 54%
    12:00 +28°C° 0 mm 1 mps 743 mmHg 52%
    13:00 +29°C° 0 mm 2 mps 743 mmHg 49%
    14:00 +29°C° 0 mm 1 mps 743 mmHg 49%
    15:00 +29°C° 0 mm 1 mps 742 mmHg 50%
    16:00 +29°C° 0 mm 1 mps 742 mmHg 50%
    17:00 +27°C° 0.2 mm 1 mps 742 mmHg 57%
    18:00 +25°C° 0.2 mm 1 mps 742 mmHg 64%
    19:00 +21°C° 0.2 mm 0 mps 743 mmHg 72%
    20:00 +23°C° 0 mm 1 mps 743 mmHg 72%
    21:00 +22°C° 0 mm 1 mps 743 mmHg 71%
    22:00 +22°C° 0 mm 1 mps 744 mmHg 71%
    23:00 +22°C° 0 mm 1 mps 744 mmHg 71%

    Tomorrow, 20 September, Thursday

    Time Temperature Precipitation Wind Pressure Humidity
    00:00 +21°C° 0 mm 1 mps 743 mmHg 70%
    01:00 +21°C° 0 mm 1 mps 743 mmHg 69%
    02:00 +21°C° 0 mm 1 mps 743 mmHg 69%
    03:00 +20°C° 0 mm 1 mps 743 mmHg 69%
    04:00 +20°C° 0 mm 1 mps 743 mmHg 68%
    05:00 +20°C° 0 mm 1 mps 743 mmHg 68%
    06:00 +20°C° 0 mm 1 mps 743 mmHg 68%
    07:00 +20°C° 0 mm 1 mps 743 mmHg 68%
    08:00 +23°C° 0 mm 1 mps 743 mmHg 62%
    09:00 +25°C° 0 mm 1 mps 743 mmHg 57%
    10:00 +27°C° 0 mm 1 mps 743 mmHg 51%
    11:00 +28°C° 0 mm 1 mps 743 mmHg 48%
    12:00 +29°C° 0 mm 1 mps 743 mmHg 46%
    13:00 +30°C° 0 mm 1 mps 742 mmHg 44%
    14:00 +30°C° 0 mm 1 mps 742 mmHg 45%
    15:00 +30°C° 0 mm 1 mps 742 mmHg 46%
    16:00 +30°C° 0 mm 1 mps 741 mmHg 47%
    17:00 +28°C° 0 mm 1 mps 741 mmHg 54%
    18:00 +26°C° 0 mm 1 mps 741 mmHg 61%
    19:00 +21°C° 0 mm 0 mps 741 mmHg 68%
    20:00 +23°C° 0 mm 1 mps 742 mmHg 68%
    21:00 +22°C° 0 mm 1 mps 742 mmHg 69%
    22:00 +22°C° 0 mm 1 mps 742 mmHg 69%
    23:00 +22°C° 0 mm 1 mps 742 mmHg 69%

    Day after tomorrow, 21 September, Friday

    Time Temperature Precipitation Wind Pressure Humidity
    00:00 +21°C° 0 mm 1 mps 742 mmHg 69%
    01:00 +21°C° 0 mm 1 mps 742 mmHg 69%
    02:00 +21°C° 0 mm 1 mps 742 mmHg 69%
    03:00 +20°C° 0 mm 1 mps 742 mmHg 69%
    04:00 +20°C° 0 mm 1 mps 741 mmHg 68%
    05:00 +20°C° 0 mm 1 mps 741 mmHg 68%
    06:00 +20°C° 0 mm 1 mps 742 mmHg 69%
    07:00 +21°C° 0 mm 1 mps 742 mmHg 69%
    08:00 +23°C° 0 mm 1 mps 742 mmHg 63%
    09:00 +25°C° 0 mm 1 mps 742 mmHg 58%
    10:00 +27°C° 0 mm 1 mps 742 mmHg 52%
    11:00 +28°C° 0 mm 1 mps 741 mmHg 51%
    12:00 +29°C° 0 mm 2 mps 741 mmHg 49%
    13:00 +30°C° 0 mm 2 mps 741 mmHg 47%
    14:00 +30°C° 0 mm 2 mps 741 mmHg 47%
    15:00 +30°C° 0 mm 2 mps 740 mmHg 48%
    16:00 +30°C° 0 mm 2 mps 740 mmHg 48%
    17:00 +28°C° 0 mm 2 mps 740 mmHg 55%
    18:00 +26°C° 0 mm 1 mps 740 mmHg 62%
    19:00 +24°C° 0 mm 1 mps 740 mmHg 69%
    20:00 +23°C° 0 mm 1 mps 740 mmHg 69%
    21:00 +23°C° 0 mm 1 mps 741 mmHg 68%
    22:00 +22°C° 0 mm 1 mps 741 mmHg 68%
    23:00 +22°C° 0 mm 1 mps 741 mmHg 68%

    22 September, Saturday

    Time Temperature Precipitation Wind Pressure Humidity
    00:00 +22°C° 0 mm 1 mps 741 mmHg 68%
    01:00 +21°C° 0 mm 1 mps 741 mmHg 68%
    02:00 +21°C° 0 mm 1 mps 741 mmHg 70%
    03:00 +21°C° 0 mm 1 mps 741 mmHg 72%
    04:00 +21°C° 0 mm 1 mps 741 mmHg 74%
    05:00 +21°C° 0 mm 1 mps 741 mmHg 75%
    06:00 +21°C° 0 mm 1 mps 741 mmHg 75%
    07:00 +21°C° 0 mm 1 mps 741 mmHg 76%
    08:00 +23°C° 0 mm 1 mps 741 mmHg 70%
    09:00 +25°C° 0 mm 1 mps 741 mmHg 65%
    10:00 +27°C° 0 mm 1 mps 742 mmHg 59%
    11:00 +28°C° 0 mm 2 mps 741 mmHg 55%
    12:00 +29°C° 0 mm 2 mps 741 mmHg 52%
    13:00 +30°C° 0 mm 2 mps 741 mmHg 48%
    14:00 +30°C° 0 mm 2 mps 741 mmHg 49%
    15:00 +30°C° 0 mm 2 mps 741 mmHg 50%
    16:00 +30°C° 0 mm 3 mps 741 mmHg 50%
    17:00 +28°C° 0 mm 2 mps 741 mmHg 59%
    18:00 +26°C° 0 mm 2 mps 741 mmHg 69%
    19:00 +23°C° 0 mm 2 mps 741 mmHg 78%
    20:00 +23°C° 0 mm 1 mps 741 mmHg 77%
    21:00 +22°C° 0 mm 1 mps 742 mmHg 77%
    22:00 +22°C° 0 mm 1 mps 742 mmHg 76%
    23:00 +21°C° 0 mm 1 mps 742 mmHg 73%

    23 September, Sunday

    Time Temperature Precipitation Wind Pressure Humidity
    00:00 +21°C° 0 mm 1 mps 742 mmHg 70%
    01:00 +21°C° 0 mm 1 mps 742 mmHg 67%
    02:00 +21°C° 0 mm 1 mps 742 mmHg 67%
    03:00 +20°C° 0 mm 1 mps 742 mmHg 67%
    04:00 +20°C° 0 mm 1 mps 742 mmHg 67%
    05:00 +20°C° 0 mm 1 mps 742 mmHg 68%
    06:00 +20°C° 0 mm 1 mps 742 mmHg 69%
    07:00 +20°C° 0 mm 1 mps 742 mmHg 70%
    08:00 +20°C° 0 mm 2 mps 742 mmHg 70%
    09:00 +20°C° 0 mm 2 mps 742 mmHg 71%
    10:00 +21°C° 0 mm 2 mps 741 mmHg 71%
    11:00 +23°C° 0 mm 2 mps 741 mmHg 71%
    12:00 +22°C° 0 mm 3 mps 741 mmHg 70%
    13:00 +24°C° 0 mm 3 mps 741 mmHg 69%
    14:00 +22°C° 0 mm 3 mps 740 mmHg 71%
    15:00 +22°C° 0 mm 3 mps 740 mmHg 73%
    16:00 +22°C° 0 mm 3 mps 739 mmHg 74%
    17:00 +21°C° 0.1 mm 2 mps 739 mmHg 79%
    18:00 +20°C° 0.1 mm 2 mps 738 mmHg 83%
    19:00 +19°C° 0.1 mm 2 mps 738 mmHg 87%
    20:00 +19°C° 0.3 mm 2 mps 738 mmHg 87%
    21:00 +19°C° 0.3 mm 2 mps 738 mmHg 87%
    22:00 +18°C° 0.3 mm 2 mps 737 mmHg 87%
    23:00 +18°C° 0.6 mm 2 mps 737 mmHg 87%

    24 September, Monday

    Time Temperature Precipitation Wind Pressure Humidity
    00:00 +18°C° 0.6 mm 2 mps 737 mmHg 87%
    01:00 +18°C° 0.6 mm 2 mps 736 mmHg 86%
    02:00 +18°C° 0 mm 2 mps 736 mmHg 84%
    03:00 +17°C° 0 mm 3 mps 735 mmHg 81%
    04:00 +16°C° 0 mm 3 mps 735 mmHg 79%
    05:00 +16°C° 0 mm 3 mps 735 mmHg 72%
    06:00 +14°C° 0 mm 4 mps 735 mmHg 66%
    07:00 +14°C° 0 mm 4 mps 735 mmHg 60%
    08:00 +17°C° 0 mm 4 mps 736 mmHg 52%
    09:00 +19°C° 0 mm 5 mps 736 mmHg 45%
    10:00 +21°C° 0 mm 5 mps 736 mmHg 37%
    11:00 +22°C° 0 mm 5 mps 737 mmHg 35%
    12:00 +23°C° 0 mm 5 mps 737 mmHg 33%
    13:00 +25°C° 0 mm 5 mps 737 mmHg 31%
    14:00 +23°C° 0 mm 5 mps 737 mmHg 32%
    15:00 +23°C° 0 mm 5 mps 737 mmHg 32%
    16:00 +23°C° 0 mm 5 mps 737 mmHg 33%
    17:00 +21°C° 0 mm 4 mps 738 mmHg 37%
    18:00 +19°C° 0 mm 4 mps 739 mmHg 41%
    19:00 +17°C° 0 mm 4 mps 739 mmHg 45%
    20:00 +16°C° 0 mm 3 mps 740 mmHg 46%
    21:00 +14°C° 0 mm 3 mps 740 mmHg 48%
    22:00 +13°C° 0 mm 3 mps 741 mmHg 49%
    23:00 +13°C° 0 mm 3 mps 741 mmHg 50%
    Show more